Wind_Speed
14 14 14 14 14 13 13 14 14 15 16 17 17 17 16 16 18 19 20 20 16 12 12 11 9 7 7 8 9 10 11 11 11 13 13 13 12 11 12 13 13 13 13 13 14 15 16 17 18 19 19 20 20 21 21 21 21 20 20 20 20 19 18 19 19 20 20 21 22 22 21 19 18 17
15 15 15 15 14 13 14 14 14 15 16 17 17 17 17 17 19 19 21 23 18 12 11 10 9 9 8 9 10 11 11 11 12 13 14 14 13 12 14 15 16 16 16 16 16 16 17 18 19 20 20 21 21 21 21 21 21 21 21 21 21 20 19 19 20 20 20 21 22 22 21 18 17 16
16 16 16 16 15 14 14 14 15 15 16 16 17 17 17 18 20 19 21 24 18 11 10 11 11 12 12 12 14 13 13 13 14 15 15 15 15 15 16 17 17 18 18 18 18 18 18 19 20 21 21 21 21 21 21 21 21 21 21 22 21 20 20 20 20 20 20 21 22 22 20 17 16 16
17 17 17 16 16 15 14 15 15 15 16 16 17 18 18 19 20 20 21 25 22 16 15 16 14 15 16 16 16 16 16 16 16 17 18 18 18 19 19 18 19 19 20 20 19 19 19 20 21 22 22 21 21 21 21 21 20 20 21 22 22 21 20 20 20 21 21 21 22 22 19 16 15 16
19 19 18 18 17 16 16 16 16 16 16 17 17 18 19 20 21 21 22 25 26 23 20 19 17 17 18 19 18 18 19 18 19 20 20 20 21 21 21 21 20 21 21 21 21 21 21 21 22 22 23 23 22 22 22 22 21 21 21 22 22 21 21 21 21 21 21 21 22 22 19 17 16 17
20 20 20 19 17 17 17 17 17 17 17 18 18 19 20 21 22 23 24 26 29 28 24 22 21 20 20 21 20 20 21 21 21 23 23 23 23 24 24 24 23 22 23 23 23 22 22 23 23 24 24 25 25 24 24 24 23 22 22 23 23 22 22 22 21 21 21 21 21 21 20 17 16 17
21 21 21 19 18 18 19 18 18 18 18 19 20 20 21 22 22 23 25 27 30 31 29 27 25 24 23 23 22 22 24 24 24 25 25 25 26 26 26 26 26 25 25 25 25 25 25 25 25 25 26 26 26 26 26 25 24 24 23 24 24 23 23 22 22 22 21 21 21 21 20 18 17 18
22 22 22 20 20 20 20 19 19 19 20 20 21 22 22 23 24 24 26 28 30 32 33 31 29 28 29 28 26 27 28 28 28 29 29 29 29 28 29 29 28 27 27 27 28 27 27 28 28 28 28 28 28 28 27 26 26 25 25 24 24 24 23 23 22 22 21 21 21 21 20 19 18 18
24 24 23 22 21 22 22 21 20 20 21 22 23 23 23 24 25 25 27 29 30 33 35 35 33 33 33 33 31 31 32 33 33 33 33 33 33 33 32 32 31 30 29 30 30 30 30 30 30 30 30 29 29 29 29 28 27 27 26 26 25 25 24 23 23 22 22 21 20 21 20 19 18 18
25 25 25 24 24 24 24 23 22 22 22 23 23 24 24 24 25 26 27 29 31 33 35 37 37 36 36 36 35 33 35 37 38 38 38 37 36 37 37 37 35 34 33 33 33 33 33 32 32 32 32 31 30 30 30 30 29 29 28 27 27 27 25 24 23 23 22 21 21 21 21 20 19 18
26 26 26 25 25 26 26 25 24 24 24 25 25 25 26 26 27 28 29 30 32 34 36 37 38 38 38 38 38 36 36 39 40 40 40 40 38 38 38 39 39 38 37 37 37 37 36 35 34 34 34 33 32 32 31 31 32 31 30 29 29 28 27 25 24 24 23 22 22 21 21 21 19 17
26 26 26 27 26 26 26 26 26 26 26 27 28 28 28 28 29 30 31 32 33 35 37 38 38 39 40 40 40 38 39 41 41 39 40 42 41 40 40 40 40 40 39 39 40 40 40 40 38 36 36 36 35 34 34 34 34 34 33 32 30 30 29 27 26 25 24 23 22 22 22 22 20 17
27 27 27 28 27 27 27 26 26 27 27 28 29 29 29 30 31 31 32 33 34 35 37 39 39 40 41 41 41 41 41 42 42 41 42 45 44 42 43 43 41 40 40 40 40 41 41 42 41 40 39 38 36 36 37 36 36 36 35 34 32 31 31 29 27 26 25 24 23 23 23 23 21 18
29 29 29 29 28 28 27 27 27 27 27 28 29 29 29 30 31 32 33 33 34 36 38 40 40 41 43 42 41 42 42 42 43 43 44 46 45 45 47 47 43 40 39 40 41 39 38 39 41 42 42 40 39 39 39 39 38 37 36 35 34 33 32 31 29 27 26 25 24 24 24 24 22 19
30 30 30 29 29 28 28 28 27 27 27 28 29 28 28 29 30 31 33 33 34 35 38 40 40 42 44 42 40 42 42 41 42 42 43 46 47 46 48 49 46 41 38 40 43 42 38 37 39 40 40 39 39 40 40 40 40 39 38 36 35 34 33 32 30 28 27 26 25 25 24 24 23 20
31 31 31 30 29 29 28 28 27 27 27 27 28 28 28 28 29 30 32 33 33 35 37 40 41 42 43 43 42 41 39 39 40 41 43 45 46 47 48 50 48 44 40 42 46 46 42 38 39 40 39 38 37 37 38 39 40 40 39 38 37 36 35 33 31 30 28 27 27 26 25 24 23 21
32 32 31 30 30 29 28 28 27 26 26 25 26 28 28 29 29 30 31 31 32 33 36 39 41 40 39 41 41 38 37 39 41 42 43 44 46 48 49 49 49 46 44 46 47 48 46 42 41 42 41 38 37 36 36 37 38 39 40 39 38 37 37 35 33 31 29 28 28 27 25 25 24 21
32 32 31 31 30 28 28 28 27 26 26 25 27 28 29 30 30 30 31 30 31 32 35 38 40 37 36 39 39 37 38 42 43 44 44 44 46 49 49 50 50 49 49 49 47 48 49 45 45 47 45 42 40 38 37 37 37 37 38 39 39 38 38 36 35 33 31 30 29 28 26 25 24 22
32 31 31 31 29 28 28 27 26 26 25 26 28 29 30 31 31 31 31 30 30 31 33 36 38 36 36 39 40 40 41 42 43 43 44 45 47 49 51 53 54 53 52 50 47 47 48 46 47 51 50 47 44 41 40 40 38 36 36 37 38 39 38 38 36 34 33 31 31 29 27 25 25 23
30 30 30 30 29 28 28 27 26 25 26 27 29 31 32 32 32 33 32 31 30 31 32 35 38 38 39 39 40 40 40 41 42 42 45 48 48 50 52 55 57 54 50 51 49 46 47 48 49 52 51 49 48 46 44 42 39 38 37 37 38 39 38 39 38 36 34 33 32 30 28 26 25 23
29 28 28 28 28 28 28 26 25 25 27 29 31 32 33 33 34 34 31 29 31 33 35 37 39 40 40 39 39 38 38 39 39 41 46 48 47 49 52 54 57 54 50 53 51 46 48 52 53 53 53 52 51 50 49 46 43 41 38 36 37 39 39 39 39 37 35 34 33 31 28 27 25 23
27 27 26 26 27 28 26 25 25 25 27 29 30 31 33 35 35 33 28 29 34 36 37 38 39 39 39 38 38 37 37 37 37 40 45 45 44 48 52 53 56 56 53 54 51 48 52 56 54 53 55 55 54 53 52 51 48 45 40 37 37 39 39 40 39 38 36 35 34 31 29 28 26 23
25 25 24 24 24 25 24 23 23 23 25 28 28 29 32 36 35 30 28 31 35 37 38 40 40 40 39 39 40 40 39 39 38 39 42 42 43 47 50 50 53 55 55 52 48 48 53 54 52 52 52 53 54 54 52 51 50 47 42 40 40 40 40 41 40 39 37 36 35 32 30 29 27 24
23 23 23 22 21 20 20 19 19 20 23 25 26 27 32 34 32 29 29 31 33 35 37 38 38 38 39 39 41 42 41 41 40 40 40 40 41 44 47 49 50 52 54 50 47 49 52 52 52 52 51 52 53 54 52 51 50 47 42 42 43 42 41 41 40 40 39 39 37 34 31 30 28 25
23 22 21 19 17 16 16 16 17 19 21 23 25 26 28 30 29 29 30 30 30 32 33 34 35 37 37 38 40 42 43 43 43 43 42 42 42 43 46 48 49 52 53 50 48 51 52 52 53 53 51 52 54 55 53 52 52 50 45 43 42 41 42 43 43 42 40 39 37 35 32 31 29 26
22 20 17 16 14 15 16 16 17 19 20 22 23 23 24 27 28 28 28 29 30 32 33 34 37 38 37 39 40 42 43 45 46 45 44 45 46 46 47 48 49 53 54 51 49 51 53 53 54 53 52 53 54 54 52 52 53 52 47 42 40 40 42 45 46 45 43 41 40 37 34 32 29 27
19 17 16 16 16 17 18 18 19 20 21 22 24 24 24 25 26 26 27 29 31 32 34 35 37 38 39 40 42 44 45 47 48 48 48 48 48 48 48 49 50 53 56 54 50 51 53 55 56 55 54 54 53 53 53 52 51 50 46 43 41 41 43 46 49 48 46 46 44 39 36 33 30 26
17 17 18 18 17 18 19 20 21 22 23 23 25 25 24 22 22 24 27 29 30 32 35 36 38 40 41 42 44 45 45 46 47 47 48 49 49 47 47 47 48 50 52 53 51 51 52 54 56 56 57 56 55 55 56 54 52 51 48 45 43 44 44 46 50 50 49 49 47 42 40 37 33 29
16 18 18 17 18 19 20 21 22 23 24 25 25 24 23 22 22 23 26 27 30 33 35 37 39 40 40 40 41 42 42 44 45 45 45 48 49 48 47 45 46 46 47 48 48 48 49 52 54 54 55 55 55 57 57 55 53 52 51 49 48 48 47 48 52 53 52 52 49 45 43 39 34 31
17 18 18 19 20 21 21 22 23 23 24 24 23 22 21 22 22 23 25 27 30 32 33 35 36 36 36 37 37 37 38 40 41 42 44 47 49 49 47 45 45 45 44 43 43 43 43 46 47 48 50 52 54 55 55 55 56 56 55 54 51 49 48 50 53 55 55 54 51 46 42 37 32 30
17 18 19 20 21 21 21 21 21 21 21 20 20 20 21 22 23 24 25 26 27 28 29 30 31 32 33 34 35 35 36 37 37 38 41 45 47 48 47 44 45 45 42 41 41 41 41 41 41 42 46 49 52 54 55 56 57 57 55 53 51 50 50 51 56 59 58 55 51 46 40 35 31 29
16 18 20 22 21 21 19 18 17 17 17 19 20 21 21 21 21 21 21 22 23 24 25 26 28 29 30 32 33 33 33 34 33 33 36 39 42 43 42 41 43 44 42 41 41 40 40 41 41 41 42 45 48 51 53 53 54 53 53 53 53 54 55 55 58 61 58 54 50 45 39 35 33 32
17 18 20 20 18 16 15 14 14 15 17 18 19 18 18 17 17 18 19 20 20 21 23 24 26 27 28 29 30 30 31 32 32 32 35 38 40 41 39 38 40 42 42 41 39 37 36 37 38 39 40 42 44 46 47 50 52 53 56 57 57 57 59 59 59 61 60 56 51 46 40 36 35 33
15 16 15 14 13 12 12 13 14 15 16 15 15 15 15 15 16 17 18 18 19 21 22 23 24 26 27 28 29 31 33 35 35 35 36 39 41 41 39 39 41 41 40 41 40 37 35 35 35 37 38 39 41 44 46 51 54 54 54 56 57 57 58 58 59 62 62 58 53 47 41 36 35 32
13 12 11 11 11 11 12 13 13 13 13 12 12 13 13 14 15 15 16 18 19 19 20 21 23 25 27 29 31 33 35 36 36 36 37 38 40 40 39 40 41 39 38 39 39 37 35 34 34 35 36 36 37 40 42 46 51 51 48 48 49 50 51 52 55 61 62 58 52 46 41 37 35 32
11 10 9 10 11 11 11 11 10 10 11 11 12 12 12 12 13 14 15 16 16 17 19 22 23 25 26 29 31 32 34 35 37 37 38 38 39 39 39 38 38 36 35 35 36 35 33 32 32 32 34 36 35 36 36 37 39 42 43 42 44 46 47 49 54 59 59 54 47 42 39 37 35 31
9 8 8 9 9 8 8 8 9 10 11 11 12 11 11 11 12 14 14 14 15 17 20 21 22 24 26 27 29 30 31 33 34 36 36 36 37 36 36 35 35 34 32 32 32 32 31 31 31 32 34 36 35 35 36 35 34 35 37 39 42 45 48 50 53 56 54 48 42 38 35 35 33 29
6 6 6 7 7 7 7 8 9 10 11 10 10 10 10 11 12 13 13 15 17 18 20 20 21 22 24 25 27 29 29 30 30 31 33 34 35 34 32 31 31 30 28 27 27 26 26 26 26 27 31 34 34 34 34 32 29 29 30 33 39 44 47 50 53 53 48 43 39 35 32 30 28 26
6 6 6 6 6 7 7 8 9 9 9 8 8 8 9 10 11 12 13 15 16 17 18 18 19 20 21 23 25 26 27 28 29 30 31 31 33 34 32 29 28 27 25 24 23 21 20 20 20 21 23 27 30 30 28 24 22 22 23 27 34 39 42 45 48 48 44 39 37 35 31 27 24 22
7 6 5 5 6 6 7 7 7 7 7 6 6 6 8 9 10 11 12 13 14 15 16 16 16 17 20 22 23 24 25 27 29 29 29 29 30 32 32 30 27 26 25 24 24 22 21 20 19 17 17 18 20 20 18 14 11 12 14 18 25 31 36 41 45 45 41 38 36 34 31 26 24 21
6 5 4 5 5 6 6 5 5 5 5 5 6 6 7 8 9 10 11 12 12 12 13 13 14 16 19 20 22 24 25 26 27 27 26 27 28 30 30 29 27 25 23 22 21 20 19 19 19 18 16 14 12 11 8 4 8 12 16 20 24 29 33 38 40 39 37 35 34 32 29 25 22 21
3 3 4 4 4 4 4 3 3 4 5 5 6 6 6 7 8 8 9 11 10 10 11 12 13 15 18 19 20 22 23 25 26 26 26 27 27 27 27 26 24 22 20 19 18 16 14 13 12 12 9 5 5 4 2 12 20 23 25 27 29 30 30 29 27 27 28 28 29 29 28 25 22 22
2 2 2 2 2 2 2 3 3 4 5 6 6 6 7 7 7 6 7 9 9 8 9 12 13 14 17 18 19 20 22 23 24 25 25 26 25 25 24 22 20 20 19 17 15 14 13 12 10 7 4 3 2 5 15 24 28 29 31 31 30 29 28 26 24 23 22 20 21 22 23 21 18 19
2 2 2 2 2 2 2 3 3 4 5 6 6 6 7 7 7 6 7 8 9 8 9 11 13 13 15 17 17 18 20 22 22 22 23 23 22 21 20 18 18 19 18 16 15 14 15 14 12 9 7 10 13 20 27 31 31 31 32 32 31 31 30 28 26 24 22 21 20 19 16 12 11 14
2 1 2 2 3 4 4 4 4 5 6 6 7 6 7 7 7 7 7 8 9 9 9 10 12 12 14 15 16 17 18 19 19 19 19 19 18 18 16 15 15 17 16 15 16 16 17 18 18 18 20 24 26 29 31 31 31 31 31 31 30 30 28 27 28 27 26 24 22 18 15 12 12 13
Wind_Direction
259 258 259 261 263 265 265 264 263 264 267 271 272 273 271 270 273 278 283 289 295 299 302 305 307 304 298 293 286 276 272 270 269 271 274 279 283 282 283 284 284 285 285 283 278 271 266 262 261 260 260 262 263 265 267 269 273 276 280 284 287 290 293 298 303 309 313 318 323 326 326 324 320 318
262 261 261 261 263 265 267 267 266 264 266 269 272 272 267 261 262 269 279 288 295 298 298 306 310 309 303 296 291 287 285 282 277 275 276 280 284 285 281 279 280 280 281 280 278 274 269 266 263 262 262 263 264 266 267 269 271 273 276 279 283 286 289 294 300 305 310 315 321 325 325 322 320 319
264 264 263 263 264 265 267 269 270 269 269 270 271 271 267 261 259 262 271 280 287 293 291 295 298 299 300 296 293 293 293 292 287 284 284 285 286 284 280 278 278 278 279 279 278 275 271 267 265 264 263 264 265 267 268 268 269 271 273 275 279 282 286 291 297 302 307 313 320 324 323 321 320 320
264 265 265 265 266 266 266 268 270 272 273 272 270 268 267 263 260 260 262 269 279 287 286 286 288 291 292 291 291 294 296 295 293 290 289 288 287 284 282 281 279 277 277 278 277 276 273 269 266 265 265 265 266 267 268 268 268 269 271 272 275 278 282 288 294 299 304 310 318 322 321 319 319 319
264 265 266 266 267 267 267 267 269 270 272 272 270 267 267 265 263 262 261 267 277 286 286 284 286 287 287 286 286 290 292 292 293 291 288 287 285 283 283 282 280 278 276 275 275 275 275 272 269 267 266 266 266 267 268 269 269 269 270 271 273 276 279 285 291 296 301 307 315 320 319 316 316 316
266 266 267 268 267 266 267 267 268 269 270 270 270 269 269 270 269 267 266 268 274 283 287 286 285 285 284 284 285 286 287 288 288 285 283 283 282 281 280 279 278 276 275 274 273 273 273 273 272 270 269 267 267 267 267 268 268 269 269 270 272 273 276 282 289 293 297 304 312 317 316 313 313 313
268 268 269 269 268 267 267 267 267 268 269 269 270 270 271 273 274 273 272 271 274 281 287 289 288 287 285 284 284 285 285 284 283 282 282 282 281 279 278 278 277 275 273 273 272 271 271 271 271 271 271 269 268 268 267 267 268 269 269 270 270 271 275 280 286 289 293 300 308 313 313 310 310 311
270 270 269 269 270 270 269 268 267 266 267 267 268 269 269 270 272 273 273 273 274 278 282 286 288 288 287 286 285 285 284 284 283 283 283 282 281 281 279 278 278 276 275 273 272 271 271 271 270 270 270 270 270 269 268 267 267 268 269 269 268 269 273 278 282 286 290 296 303 309 309 307 307 307
269 270 270 270 271 271 271 270 269 268 269 270 270 271 272 273 274 275 275 275 276 276 278 283 286 286 286 286 286 286 286 286 286 285 284 283 282 281 280 278 278 278 277 275 273 272 271 271 271 271 270 270 270 270 270 268 266 266 267 268 267 268 271 275 279 282 286 291 297 304 306 304 303 303
270 270 270 270 270 270 271 271 271 272 273 273 273 274 275 277 278 278 278 278 278 278 279 282 285 285 285 285 286 287 287 287 287 286 285 283 281 281 280 280 279 278 278 278 277 275 273 272 272 272 272 271 270 270 270 269 267 266 265 265 266 267 268 271 275 278 282 286 292 298 302 301 300 299
271 271 271 272 271 271 272 273 274 274 275 275 276 276 277 279 280 280 281 281 281 281 282 283 285 286 287 286 287 287 287 286 285 285 286 286 285 285 285 284 283 282 280 279 279 277 275 273 271 271 270 270 270 269 268 267 267 266 264 263 263 265 266 267 270 274 277 281 287 293 297 298 298 296
272 272 272 272 272 272 273 274 275 276 277 278 277 277 279 280 281 281 282 282 283 283 283 284 285 286 286 286 287 288 287 285 285 287 289 289 289 290 289 288 287 287 285 283 281 279 277 275 273 271 270 269 269 269 268 266 266 265 263 261 260 261 262 263 266 269 272 276 281 287 292 295 295 293
273 274 274 275 275 276 276 276 277 277 278 279 278 279 281 282 283 283 283 283 283 284 284 284 284 285 285 286 287 287 287 287 289 291 291 290 291 292 291 289 288 289 288 287 284 281 280 279 277 274 271 269 268 268 267 265 264 264 263 261 259 259 259 260 262 265 268 271 275 281 287 290 290 289
273 275 276 278 279 279 280 279 280 280 280 280 280 281 283 285 285 285 285 285 285 286 286 285 286 287 286 286 288 289 289 291 292 293 292 292 292 293 292 290 291 291 291 290 287 285 285 285 283 280 277 274 270 266 264 263 263 262 261 260 259 258 257 258 259 261 263 265 268 274 280 284 285 285
273 275 277 279 281 282 282 283 284 284 283 283 283 283 285 285 285 285 285 285 286 286 286 286 287 287 287 289 289 290 291 293 293 294 294 293 293 293 291 291 293 294 295 294 291 290 290 289 287 285 282 278 273 268 265 263 263 262 261 260 258 256 256 255 256 257 258 259 262 267 274 279 280 280
275 277 278 280 281 282 284 285 287 287 286 286 286 286 287 287 285 285 285 286 287 287 287 287 287 287 289 291 291 291 293 295 295 295 295 293 293 293 291 291 293 296 299 296 292 291 291 290 287 284 281 279 277 273 269 265 262 261 260 259 257 255 254 253 252 252 254 255 257 261 268 274 275 274
276 278 280 281 282 283 285 286 287 288 288 287 286 287 288 287 286 287 287 288 288 287 287 287 287 288 290 292 293 295 297 296 294 294 295 295 294 293 292 293 295 296 295 292 289 288 289 288 287 284 280 280 279 275 272 267 263 261 260 258 257 255 253 251 249 249 250 251 252 257 262 267 270 270
277 278 280 282 283 284 285 286 287 289 289 289 288 288 288 289 290 290 291 291 290 289 288 286 288 291 292 292 295 298 297 293 292 293 294 295 294 292 292 293 292 290 288 287 284 284 286 287 287 286 284 281 280 277 274 272 268 263 260 258 257 255 252 251 248 246 247 247 248 252 257 261 264 264
276 278 280 282 283 285 286 287 288 289 290 291 290 289 289 291 293 294 294 294 294 292 290 289 290 293 294 295 298 299 297 294 293 293 293 292 289 287 287 288 286 284 285 286 280 277 282 286 285 287 286 282 281 279 276 275 274 269 262 258 255 253 251 249 247 245 244 244 245 247 252 255 258 259
275 278 279 281 283 285 286 288 289 291 291 290 289 288 289 292 294 294 296 298 296 293 291 291 293 295 297 298 297 298 297 295 294 293 290 287 284 281 281 283 284 283 284 286 281 274 278 284 285 286 285 280 279 279 275 271 268 263 258 254 251 249 247 245 245 244 242 241 242 244 247 249 252 255
275 277 279 281 284 285 287 289 291 292 291 290 289 290 291 293 294 296 298 297 295 294 295 296 297 298 299 299 297 297 296 296 296 292 286 286 285 282 279 280 284 285 285 286 282 274 276 283 284 284 284 281 278 278 275 270 264 257 255 252 248 246 243 241 241 241 239 238 239 241 243 245 247 250
276 278 280 283 284 285 289 292 293 293 291 289 289 291 292 293 293 294 295 294 295 297 298 299 299 298 299 298 298 297 295 296 296 290 286 289 289 283 279 280 283 285 284 283 279 273 276 281 282 282 283 281 279 279 278 274 269 262 257 252 247 244 241 238 237 237 236 235 236 237 239 241 242 244
279 281 283 285 286 288 291 293 294 293 291 289 290 291 291 290 290 291 293 295 296 297 297 298 299 298 298 298 298 299 298 297 296 291 289 291 289 283 282 283 281 280 282 283 280 275 277 279 280 281 279 275 278 282 281 276 273 269 264 255 247 242 238 235 234 234 232 232 233 233 234 237 239 239
282 284 287 289 290 291 293 294 294 293 291 289 289 288 286 287 289 294 297 298 298 296 295 296 298 298 299 300 300 301 301 301 299 297 294 293 290 286 284 284 281 279 284 288 284 279 279 278 279 282 277 270 273 279 279 276 274 273 267 257 248 240 234 231 230 230 231 231 231 230 230 233 236 237
284 287 290 292 293 293 292 291 289 288 288 287 287 287 285 287 294 299 299 300 300 299 298 300 300 300 301 302 302 302 304 304 304 303 300 299 297 291 287 285 280 279 285 291 287 281 279 278 278 278 273 269 270 272 273 273 273 271 265 257 250 241 232 228 226 226 226 226 225 225 226 229 233 234
285 289 291 291 290 288 286 284 283 284 286 287 287 287 283 285 293 299 299 300 301 301 302 303 301 301 303 303 303 304 305 306 306 305 302 300 299 296 292 289 284 281 285 291 287 280 277 276 275 273 269 268 269 269 268 268 269 268 260 252 249 242 232 227 225 222 219 219 219 220 222 226 229 229
287 290 289 287 285 282 282 283 284 285 287 287 287 287 285 285 292 300 301 300 301 302 303 303 302 302 305 305 305 304 304 304 305 304 302 301 298 294 291 290 287 286 288 289 285 279 275 273 272 271 269 268 268 267 265 264 264 264 257 249 246 242 233 227 225 223 219 217 217 215 216 221 224 224
285 283 281 279 278 278 279 282 284 286 288 287 288 290 291 290 291 294 297 299 301 302 301 302 302 302 303 304 303 303 303 304 303 303 303 302 298 293 289 288 286 285 286 286 284 280 277 274 272 271 270 268 265 265 264 262 262 261 257 250 244 240 233 226 224 223 221 217 215 212 211 214 215 213
275 272 272 271 271 274 277 279 282 285 287 288 289 290 291 292 292 293 295 298 299 298 298 299 298 298 299 301 302 303 304 305 305 305 304 301 298 295 293 291 287 284 282 282 282 281 279 277 274 272 270 267 264 261 260 261 262 260 256 252 248 243 236 227 222 221 219 216 214 211 210 211 211 210
265 264 264 265 268 272 275 278 281 284 285 287 289 290 292 294 295 295 295 295 295 295 295 296 296 298 301 304 305 307 308 307 308 307 304 301 300 298 297 295 291 289 288 287 286 285 283 280 277 275 272 268 263 261 262 262 262 259 255 252 247 240 232 224 219 219 218 214 211 209 208 209 212 213
257 258 260 264 267 270 272 274 277 281 283 285 288 291 293 294 295 295 295 295 296 297 298 299 300 304 309 311 313 314 312 311 312 311 306 302 301 300 299 297 294 292 292 292 292 292 290 287 285 282 278 272 267 266 266 262 258 254 250 247 244 241 237 228 219 217 216 212 206 202 202 205 209 211
250 252 255 259 260 262 265 270 274 278 283 287 290 292 294 295 296 297 298 299 301 302 303 305 309 314 317 318 318 317 315 315 317 315 311 309 309 308 305 300 297 296 295 294 294 293 293 293 291 288 283 277 273 270 265 260 255 251 248 248 247 244 241 233 220 212 210 206 199 195 198 202 204 206
251 252 253 255 256 259 265 272 277 282 287 290 292 293 295 298 300 302 303 304 306 308 311 317 321 323 322 320 320 319 319 321 323 323 321 319 317 315 310 303 300 300 299 299 300 300 298 296 293 291 290 287 283 277 270 265 262 258 253 250 245 235 231 229 222 212 205 200 195 193 196 200 200 204
254 256 256 255 258 265 273 278 281 284 286 288 290 294 298 302 305 306 308 311 316 321 324 327 327 325 323 323 324 326 327 328 328 328 326 323 319 315 311 306 304 303 300 302 306 307 305 301 297 295 295 291 283 275 268 263 263 261 254 248 239 229 222 220 217 210 204 199 195 193 194 195 197 201
251 254 256 261 268 274 276 278 280 282 282 285 290 295 301 305 308 312 317 323 328 330 329 328 327 326 327 329 331 332 333 332 331 330 328 324 322 319 315 311 309 306 304 304 305 306 306 305 302 298 297 293 284 275 267 260 257 255 250 242 234 226 219 214 210 205 201 197 194 192 188 187 192 197
245 249 259 270 275 275 275 277 278 281 284 289 295 301 307 312 317 323 329 332 331 327 327 328 329 330 332 334 336 338 338 336 334 333 331 329 327 326 322 318 314 310 307 305 305 306 307 307 304 300 298 295 289 284 282 276 267 259 255 249 238 228 220 213 206 200 195 191 189 187 182 182 187 191
236 245 258 265 266 268 272 276 280 286 292 297 303 310 316 322 327 332 333 328 324 325 329 331 332 334 337 340 341 343 343 340 338 337 338 338 338 336 333 328 323 318 312 307 306 307 306 304 303 302 298 291 284 281 283 283 276 266 259 251 241 230 219 208 198 192 188 185 183 182 182 181 182 184
232 241 247 252 256 262 271 278 284 291 296 301 309 317 324 327 330 331 327 323 324 329 331 332 335 340 344 346 347 348 348 347 346 347 348 346 345 345 342 337 334 331 325 317 313 310 305 303 305 306 301 291 282 277 275 271 266 259 249 240 232 222 210 198 190 183 181 180 177 175 177 177 175 175
220 225 231 240 252 262 272 281 288 292 297 304 316 324 326 327 329 327 325 326 329 330 330 334 342 347 349 349 351 352 351 353 354 354 352 349 348 348 347 344 343 345 344 341 339 336 330 324 320 315 303 288 276 271 268 261 253 247 236 223 218 210 196 186 181 177 173 173 172 169 171 171 168 171
204 211 224 240 255 267 277 284 289 293 300 311 320 323 322 323 325 326 329 332 331 330 334 342 349 351 350 351 352 352 351 353 352 351 350 351 352 351 351 352 355 358 358 359 1 3 2 359 352 341 321 295 279 276 277 266 244 227 210 200 204 204 192 180 176 171 168 169 169 166 163 162 162 172
199 211 229 246 261 273 281 288 296 300 303 308 313 314 315 319 324 327 332 334 332 333 344 350 350 350 352 352 352 352 353 354 355 354 356 358 358 357 356 359 4 7 8 11 15 17 18 16 9 1 348 326 305 300 293 234 168 161 163 168 178 184 179 173 171 168 164 165 163 156 150 153 163 179
208 228 243 255 269 284 295 307 307 297 293 298 302 303 304 310 318 324 332 338 339 343 352 352 348 349 352 351 352 355 357 359 1 3 6 5 2 1 2 4 8 14 17 21 25 23 21 21 17 14 15 359 320 314 162 149 145 143 147 152 157 160 160 161 164 163 159 157 153 148 148 156 169 182
225 245 256 267 284 303 310 310 302 290 288 295 300 299 296 298 305 315 331 342 346 349 353 351 349 351 352 352 354 359 1 3 6 9 12 12 8 5 5 8 14 20 24 27 28 22 17 20 21 23 51 103 147 136 134 136 136 134 135 137 138 138 137 137 140 144 143 139 138 141 149 159 174 191
228 241 253 268 284 289 288 292 297 294 290 291 298 299 293 291 295 306 326 344 350 352 352 352 351 352 353 355 358 2 4 6 8 10 15 18 17 15 15 20 28 32 32 33 33 31 31 37 39 42 70 104 120 123 123 124 124 125 128 128 127 125 125 125 127 132 134 134 135 138 146 161 191 214
222 252 274 290 299 296 289 288 291 292 287 286 291 296 289 283 291 306 323 339 349 352 350 348 349 352 355 356 358 1 5 7 8 10 15 21 24 27 32 36 40 42 45 51 56 60 63 67 72 81 93 104 110 113 115 118 120 122 124 124 123 125 129 133 135 135 135 135 136 139 149 170 197 213
Height
1599 1599 1600 1600 1601 1602 1602 1603 1603 1603 1603 1604 1604 1604 1604 1604 1603 1602 1601 1599 1599 1600 1600 1600 1600 1600 1600 1600 1600 1600 1600 1600 1600 1600 1599 1599 1598 1598 1597 1597 1596 1596 1595 1595 1595 1594 1594 1594 1593 1593 1592 1592 1592 1591 1591 1591 1591 1590 1590 1589 1589 1588 1588 1587 1586 1585 1584 1584 1583 1581 1580 1579 1578 1577
1598 1598 1598 1599 1599 1600 1601 1601 1601 1602 1602 1602 1603 1603 1603 1603 1602 1602 1601 1598 1597 1598 1598 1599 1599 1599 1599 1599 1599 1598 1598 1599 1598 1597 1597 1596 1596 1596 1595 1594 1594 1594 1593 1593 1592 1592 1592 1591 1591 1591 1590 1590 1589 1589 1589 1589 1589 1589 1588 1588 1587 1586 1586 1585 1584 1583 1583 1582 1580 1579 1578 1577 1576 1576
1596 1596 1597 1597 1598 1599 1599 1599 1600 1600 1600 1600 1601 1601 1601 1601 1601 1601 1601 1598 1596 1596 1597 1597 1598 1598 1598 1598 1597 1597 1597 1597 1596 1595 1595 1594 1594 1594 1593 1592 1592 1591 1591 1590 1590 1590 1589 1589 1589 1588 1588 1588 1587 1587 1587 1587 1587 1586 1586 1586 1585 1585 1584 1583 1583 1582 1581 1580 1578 1577 1576 1575 1574 1574
1595 1595 1596 1596 1597 1598 1598 1598 1598 1598 1598 1599 1599 1599 1599 1599 1599 1600 1600 1598 1594 1594 1596 1596 1596 1596 1596 1595 1595 1595 1595 1595 1594 1593 1593 1592 1592 1591 1590 1590 1589 1589 1588 1588 1587 1587 1587 1586 1586 1586 1586 1585 1585 1585 1585 1585 1584 1584 1584 1583 1583 1583 1582 1582 1581 1580 1579 1578 1577 1575 1574 1573 1573 1572
1593 1594 1594 1595 1595 1596 1596 1596 1596 1596 1597 1597 1597 1597 1597 1597 1598 1598 1598 1596 1593 1592 1593 1594 1594 1594 1594 1593 1593 1593 1593 1593 1592 1591 1590 1590 1589 1588 1588 1587 1587 1586 1586 1585 1585 1584 1584 1584 1584 1583 1583 1583 1583 1583 1582 1582 1582 1582 1581 1581 1581 1581 1580 1580 1579 1578 1577 1576 1575 1574 1573 1572 1571 1571
1592 1592 1592 1593 1594 1594 1594 1594 1595 1595 1595 1595 1595 1595 1595 1595 1596 1596 1596 1595 1592 1590 1590 1591 1592 1592 1592 1591 1591 1591 1590 1590 1590 1588 1587 1587 1586 1585 1585 1584 1584 1584 1583 1583 1582 1582 1581 1581 1581 1581 1580 1580 1580 1580 1580 1580 1580 1580 1579 1579 1579 1578 1578 1577 1577 1576 1575 1574 1573 1572 1571 1570 1570 1569
1589 1590 1590 1591 1592 1592 1592 1593 1593 1593 1593 1593 1593 1593 1593 1593 1593 1594 1594 1593 1591 1589 1587 1588 1589 1589 1589 1588 1588 1588 1588 1587 1586 1585 1585 1584 1583 1582 1582 1581 1581 1581 1581 1580 1580 1579 1579 1578 1578 1577 1577 1577 1577 1577 1577 1577 1577 1578 1577 1577 1577 1576 1576 1575 1575 1574 1573 1572 1571 1570 1570 1569 1568 1567
1587 1587 1588 1588 1589 1590 1590 1590 1591 1591 1590 1590 1590 1590 1591 1591 1591 1592 1591 1590 1590 1588 1585 1585 1586 1586 1586 1585 1585 1585 1584 1584 1583 1582 1581 1581 1580 1579 1579 1578 1577 1577 1577 1577 1577 1576 1575 1575 1574 1574 1574 1573 1574 1574 1574 1575 1575 1575 1575 1575 1575 1574 1574 1573 1572 1572 1571 1570 1569 1569 1568 1567 1566 1566
1584 1585 1585 1586 1587 1587 1587 1588 1588 1588 1588 1588 1588 1588 1588 1589 1589 1589 1589 1588 1587 1586 1583 1582 1583 1583 1583 1582 1582 1582 1581 1580 1579 1578 1577 1577 1576 1575 1575 1574 1574 1574 1574 1573 1573 1573 1572 1571 1570 1570 1570 1570 1571 1571 1571 1572 1572 1572 1572 1572 1572 1572 1572 1571 1570 1570 1569 1568 1567 1567 1566 1566 1565 1564
1582 1582 1582 1583 1584 1584 1584 1585 1585 1585 1586 1585 1585 1585 1586 1586 1587 1586 1586 1585 1584 1583 1581 1580 1579 1579 1579 1578 1578 1578 1578 1576 1575 1574 1573 1572 1572 1572 1571 1570 1570 1571 1570 1570 1569 1568 1568 1567 1567 1567 1567 1567 1567 1568 1568 1568 1568 1568 1568 1568 1568 1568 1569 1569 1568 1567 1567 1566 1565 1565 1564 1564 1563 1562
1579 1579 1580 1580 1581 1581 1581 1582 1582 1583 1583 1582 1582 1582 1583 1584 1583 1583 1583 1582 1581 1579 1578 1577 1576 1575 1574 1574 1573 1574 1574 1572 1570 1569 1568 1567 1567 1568 1567 1566 1566 1566 1566 1566 1565 1564 1563 1563 1563 1563 1563 1564 1564 1565 1564 1564 1564 1564 1564 1564 1564 1564 1565 1565 1565 1565 1564 1563 1563 1562 1562 1561 1561 1560
1576 1576 1577 1578 1578 1579 1579 1579 1580 1580 1580 1579 1579 1579 1580 1580 1580 1580 1579 1578 1577 1576 1574 1573 1572 1571 1569 1569 1569 1570 1569 1567 1565 1566 1565 1562 1562 1563 1562 1560 1560 1561 1561 1561 1559 1558 1557 1558 1559 1560 1559 1560 1561 1561 1561 1560 1560 1559 1559 1559 1560 1560 1560 1561 1561 1561 1561 1561 1560 1560 1559 1559 1558 1558
1573 1573 1574 1574 1575 1576 1576 1577 1577 1577 1577 1576 1575 1576 1576 1576 1576 1576 1575 1575 1574 1573 1571 1569 1568 1567 1565 1565 1565 1565 1564 1563 1561 1562 1561 1558 1557 1558 1556 1554 1555 1555 1555 1555 1553 1552 1552 1552 1554 1555 1555 1555 1557 1557 1556 1555 1554 1554 1554 1555 1555 1555 1556 1556 1557 1557 1557 1557 1557 1557 1556 1556 1556 1555
1569 1570 1571 1571 1572 1573 1573 1574 1574 1574 1573 1573 1572 1572 1573 1573 1572 1571 1571 1571 1570 1569 1566 1564 1564 1563 1561 1561 1562 1560 1559 1559 1558 1558 1557 1553 1552 1553 1549 1546 1549 1551 1550 1549 1546 1546 1548 1549 1548 1549 1549 1549 1551 1550 1549 1549 1549 1549 1550 1550 1550 1551 1551 1552 1552 1553 1553 1554 1554 1554 1553 1553 1553 1553
1566 1567 1567 1568 1569 1569 1569 1570 1570 1570 1570 1568 1568 1568 1569 1569 1569 1568 1567 1567 1567 1565 1562 1560 1560 1558 1556 1557 1558 1556 1555 1556 1554 1553 1552 1550 1548 1548 1545 1541 1542 1545 1546 1543 1539 1540 1544 1546 1543 1541 1541 1542 1543 1543 1543 1544 1544 1544 1545 1545 1546 1546 1547 1547 1548 1549 1549 1550 1550 1550 1550 1550 1550 1550
1562 1563 1563 1564 1565 1565 1566 1566 1567 1566 1566 1564 1563 1563 1565 1565 1564 1564 1564 1564 1563 1561 1558 1556 1555 1555 1553 1551 1552 1553 1552 1551 1550 1549 1548 1546 1544 1543 1541 1537 1536 1538 1540 1538 1534 1534 1538 1540 1539 1535 1534 1535 1536 1536 1538 1538 1539 1540 1540 1540 1541 1542 1542 1543 1544 1544 1545 1546 1546 1546 1546 1546 1547 1547
1558 1558 1559 1560 1561 1561 1562 1563 1563 1563 1562 1561 1559 1559 1560 1560 1560 1560 1560 1560 1559 1557 1555 1552 1549 1550 1551 1547 1546 1549 1549 1547 1546 1545 1544 1543 1541 1538 1536 1533 1531 1531 1533 1532 1529 1528 1530 1533 1533 1530 1528 1530 1530 1530 1531 1532 1533 1535 1536 1536 1537 1538 1538 1539 1540 1541 1541 1542 1542 1542 1543 1543 1543 1544
1554 1554 1555 1556 1556 1557 1558 1559 1559 1559 1559 1557 1555 1554 1554 1555 1555 1555 1555 1556 1555 1553 1551 1548 1545 1546 1548 1544 1542 1545 1546 1543 1542 1542 1540 1539 1536 1534 1531 1528 1525 1525 1526 1527 1526 1523 1523 1527 1527 1523 1522 1523 1523 1523 1524 1525 1527 1529 1531 1532 1532 1533 1534 1535 1536 1537 1537 1538 1538 1538 1539 1539 1539 1540
1550 1550 1551 1552 1552 1553 1554 1555 1555 1556 1555 1554 1552 1549 1549 1550 1551 1550 1550 1550 1550 1549 1547 1545 1542 1542 1543 1542 1540 1540 1541 1539 1538 1537 1536 1533 1531 1530 1527 1522 1519 1519 1522 1523 1523 1519 1519 1524 1521 1514 1512 1515 1516 1516 1517 1518 1521 1523 1524 1525 1526 1527 1529 1530 1531 1532 1533 1533 1534 1534 1535 1536 1536 1537
1546 1547 1548 1548 1549 1549 1550 1551 1551 1552 1552 1551 1548 1545 1545 1546 1547 1546 1546 1545 1544 1544 1542 1541 1539 1538 1538 1538 1537 1536 1536 1535 1534 1533 1530 1527 1527 1525 1521 1516 1513 1515 1518 1518 1516 1514 1515 1517 1511 1504 1503 1505 1505 1506 1508 1509 1512 1513 1514 1516 1518 1519 1521 1523 1525 1527 1528 1529 1529 1530 1531 1532 1532 1533
1542 1543 1544 1545 1545 1545 1546 1547 1547 1548 1548 1547 1544 1541 1540 1542 1543 1542 1542 1541 1539 1538 1537 1536 1535 1533 1533 1533 1531 1531 1531 1531 1531 1530 1525 1522 1523 1521 1516 1510 1507 1509 1513 1512 1511 1509 1507 1505 1502 1498 1498 1497 1496 1496 1497 1499 1501 1503 1504 1507 1510 1511 1513 1515 1517 1520 1522 1524 1525 1527 1528 1528 1529 1529
1538 1539 1540 1541 1541 1541 1542 1543 1544 1544 1544 1543 1541 1538 1537 1537 1538 1538 1538 1537 1535 1534 1532 1531 1530 1529 1528 1528 1526 1525 1526 1526 1527 1525 1520 1519 1519 1516 1511 1507 1503 1502 1504 1506 1507 1503 1498 1497 1497 1495 1492 1490 1488 1488 1488 1489 1492 1495 1497 1500 1502 1505 1507 1508 1510 1513 1516 1518 1520 1522 1525 1525 1525 1525
1534 1535 1536 1537 1538 1538 1538 1539 1540 1540 1540 1539 1538 1536 1533 1533 1534 1534 1534 1533 1531 1530 1528 1526 1525 1523 1523 1522 1520 1519 1519 1520 1521 1520 1517 1515 1514 1510 1506 1505 1502 1497 1494 1498 1502 1498 1492 1491 1492 1492 1488 1483 1480 1481 1482 1482 1484 1487 1491 1493 1495 1498 1500 1502 1503 1506 1509 1511 1513 1516 1519 1521 1521 1521
1530 1531 1532 1533 1534 1534 1535 1535 1536 1536 1536 1536 1535 1533 1530 1528 1530 1531 1531 1530 1528 1526 1524 1522 1521 1519 1518 1517 1514 1513 1512 1512 1512 1512 1511 1510 1508 1505 1502 1500 1499 1493 1488 1492 1496 1492 1488 1486 1485 1486 1485 1479 1474 1474 1475 1475 1476 1479 1482 1484 1487 1490 1493 1496 1497 1499 1501 1504 1507 1510 1513 1516 1517 1517
1526 1528 1529 1530 1530 1531 1531 1532 1532 1533 1533 1532 1531 1530 1526 1524 1527 1528 1527 1525 1524 1522 1520 1518 1516 1515 1514 1513 1510 1509 1507 1506 1505 1504 1503 1502 1501 1499 1496 1494 1492 1488 1484 1488 1490 1486 1483 1481 1478 1478 1478 1474 1469 1469 1469 1468 1468 1469 1471 1474 1479 1484 1487 1489 1490 1492 1495 1498 1501 1505 1508 1510 1511 1512
1523 1524 1525 1526 1527 1528 1528 1528 1529 1529 1529 1528 1527 1527 1524 1522 1523 1525 1523 1521 1520 1518 1516 1514 1512 1510 1510 1509 1506 1505 1503 1501 1500 1498 1497 1496 1493 1491 1489 1488 1485 1480 1478 1481 1483 1480 1476 1474 1472 1471 1471 1467 1464 1464 1463 1461 1461 1462 1464 1468 1474 1478 1480 1482 1483 1484 1488 1491 1494 1498 1501 1504 1506 1508
1520 1521 1522 1523 1523 1524 1524 1524 1524 1524 1525 1524 1524 1524 1523 1521 1520 1521 1519 1517 1516 1514 1512 1510 1508 1506 1506 1505 1502 1501 1499 1497 1495 1493 1492 1490 1487 1484 1482 1481 1479 1475 1472 1474 1476 1473 1470 1468 1466 1466 1464 1462 1460 1459 1457 1455 1455 1456 1458 1462 1467 1469 1470 1473 1476 1478 1481 1484 1487 1491 1496 1499 1502 1504
1517 1517 1518 1519 1520 1520 1520 1520 1521 1520 1521 1521 1520 1520 1521 1520 1519 1518 1516 1514 1513 1511 1508 1507 1505 1503 1502 1501 1499 1497 1495 1492 1489 1488 1486 1483 1480 1477 1475 1474 1473 1470 1467 1467 1468 1467 1464 1461 1459 1459 1458 1456 1454 1452 1449 1449 1449 1450 1452 1456 1460 1461 1463 1467 1470 1472 1475 1477 1480 1484 1488 1491 1495 1498
1514 1514 1515 1516 1516 1517 1517 1517 1517 1517 1517 1517 1517 1517 1517 1516 1516 1515 1514 1512 1510 1508 1506 1505 1503 1501 1500 1499 1496 1494 1491 1488 1484 1482 1480 1476 1473 1470 1468 1466 1464 1462 1461 1460 1460 1460 1458 1455 1452 1452 1451 1449 1447 1444 1443 1444 1444 1444 1446 1449 1451 1454 1457 1460 1462 1465 1468 1470 1472 1476 1480 1485 1489 1492
1510 1511 1511 1512 1512 1513 1514 1514 1514 1514 1513 1513 1513 1513 1513 1513 1513 1512 1511 1509 1508 1506 1504 1502 1500 1498 1497 1495 1493 1490 1487 1483 1480 1478 1474 1470 1467 1464 1460 1457 1454 1452 1453 1453 1453 1453 1452 1450 1448 1447 1445 1442 1441 1439 1439 1439 1439 1438 1438 1440 1442 1445 1448 1453 1456 1458 1460 1462 1465 1470 1476 1482 1486 1489
1507 1507 1508 1508 1509 1509 1510 1511 1511 1511 1510 1510 1510 1510 1509 1509 1509 1508 1507 1506 1504 1503 1501 1499 1497 1495 1493 1490 1488 1485 1482 1479 1477 1474 1470 1464 1461 1458 1455 1450 1445 1443 1445 1446 1445 1445 1444 1443 1442 1442 1439 1437 1435 1433 1432 1432 1430 1429 1430 1433 1435 1437 1440 1445 1448 1449 1452 1456 1460 1465 1472 1477 1481 1486
1504 1504 1504 1505 1505 1506 1506 1507 1507 1508 1508 1507 1506 1506 1506 1505 1505 1504 1503 1502 1501 1500 1498 1496 1494 1491 1489 1486 1484 1481 1479 1476 1474 1471 1466 1461 1456 1453 1449 1444 1439 1436 1436 1437 1438 1437 1436 1435 1434 1433 1432 1431 1429 1427 1427 1425 1424 1425 1426 1427 1427 1428 1431 1435 1437 1440 1446 1452 1456 1461 1467 1471 1475 1480
1500 1501 1501 1501 1502 1503 1503 1504 1504 1505 1505 1504 1504 1503 1503 1502 1502 1501 1500 1499 1498 1497 1495 1492 1490 1488 1485 1483 1481 1478 1475 1473 1470 1467 1462 1457 1452 1447 1444 1440 1436 1432 1430 1429 1430 1430 1429 1428 1427 1426 1424 1423 1422 1421 1422 1420 1418 1419 1418 1418 1418 1419 1421 1425 1428 1432 1438 1444 1449 1454 1461 1466 1470 1475
1497 1498 1498 1499 1500 1500 1501 1501 1502 1502 1502 1502 1502 1501 1500 1500 1499 1498 1497 1496 1495 1493 1491 1489 1487 1485 1482 1480 1478 1475 1471 1468 1465 1462 1458 1453 1448 1444 1440 1435 1431 1429 1427 1424 1424 1424 1422 1422 1421 1419 1417 1416 1414 1414 1415 1413 1411 1410 1410 1410 1411 1412 1413 1417 1421 1424 1429 1435 1442 1448 1455 1462 1469 1472
1494 1495 1496 1497 1498 1498 1499 1499 1500 1500 1500 1500 1500 1499 1499 1498 1497 1496 1495 1493 1491 1489 1488 1486 1484 1482 1480 1477 1474 1471 1467 1464 1461 1458 1454 1450 1445 1441 1437 1432 1428 1425 1423 1420 1419 1418 1417 1416 1415 1412 1411 1411 1409 1408 1409 1408 1407 1406 1406 1407 1409 1411 1412 1416 1419 1421 1425 1431 1438 1443 1450 1458 1466 1471
1492 1493 1494 1495 1495 1496 1496 1497 1497 1497 1498 1498 1498 1497 1497 1495 1494 1493 1492 1490 1489 1487 1486 1484 1482 1480 1477 1474 1471 1468 1465 1461 1457 1454 1450 1447 1442 1438 1433 1429 1425 1422 1420 1417 1415 1414 1412 1411 1410 1408 1406 1406 1404 1403 1403 1404 1404 1404 1403 1404 1407 1410 1412 1416 1418 1419 1423 1429 1436 1441 1448 1455 1462 1468
1490 1491 1492 1492 1493 1493 1494 1494 1495 1495 1495 1495 1495 1494 1494 1493 1491 1490 1489 1488 1487 1485 1483 1481 1479 1477 1474 1472 1469 1466 1463 1459 1455 1452 1448 1444 1440 1435 1431 1426 1423 1420 1417 1414 1412 1411 1409 1407 1406 1405 1403 1401 1400 1399 1398 1398 1399 1399 1399 1400 1402 1404 1407 1412 1416 1419 1423 1430 1437 1442 1448 1454 1460 1465
1488 1489 1490 1490 1491 1491 1492 1492 1493 1493 1493 1492 1492 1491 1491 1490 1489 1488 1487 1486 1485 1483 1481 1479 1477 1475 1472 1470 1467 1465 1462 1459 1455 1451 1447 1443 1439 1434 1430 1426 1422 1418 1415 1412 1409 1408 1406 1404 1403 1402 1400 1399 1397 1395 1395 1394 1394 1394 1396 1397 1398 1399 1402 1406 1412 1418 1426 1433 1438 1443 1449 1454 1459 1464
1486 1487 1488 1488 1489 1490 1490 1490 1491 1490 1490 1490 1490 1489 1489 1488 1487 1486 1485 1484 1482 1481 1479 1478 1476 1474 1471 1469 1467 1464 1461 1458 1454 1451 1447 1443 1439 1435 1431 1426 1422 1418 1414 1411 1407 1405 1403 1401 1400 1399 1398 1397 1395 1394 1393 1393 1393 1393 1394 1397 1399 1401 1405 1410 1416 1423 1430 1436 1440 1444 1450 1456 1460 1464
1484 1485 1486 1487 1487 1488 1488 1488 1488 1488 1488 1488 1487 1487 1487 1486 1485 1484 1483 1482 1480 1479 1478 1476 1475 1473 1471 1468 1466 1464 1461 1458 1455 1451 1448 1444 1440 1436 1432 1428 1424 1420 1416 1411 1407 1404 1401 1399 1397 1396 1396 1395 1394 1393 1393 1394 1395 1396 1397 1400 1403 1405 1409 1414 1420 1426 1432 1438 1442 1445 1450 1455 1459 1464
1483 1484 1485 1485 1486 1486 1486 1486 1486 1486 1486 1486 1486 1485 1485 1484 1483 1482 1481 1480 1479 1478 1477 1475 1474 1472 1470 1468 1466 1464 1461 1458 1455 1452 1448 1445 1442 1438 1434 1430 1426 1422 1418 1414 1409 1406 1403 1400 1398 1397 1396 1395 1394 1394 1394 1396 1398 1400 1402 1405 1408 1411 1415 1419 1424 1429 1434 1440 1443 1445 1449 1454 1459 1463
1482 1483 1483 1484 1484 1484 1484 1485 1485 1485 1485 1484 1484 1484 1483 1482 1482 1481 1479 1478 1477 1477 1476 1474 1473 1471 1469 1467 1465 1463 1460 1458 1455 1452 1449 1446 1443 1440 1436 1433 1429 1426 1422 1417 1413 1410 1407 1404 1402 1400 1398 1398 1397 1396 1396 1398 1401 1403 1406 1409 1413 1418 1422 1427 1431 1435 1439 1443 1445 1445 1448 1453 1459 1464
1481 1482 1482 1482 1483 1483 1483 1483 1483 1483 1483 1483 1483 1482 1482 1481 1480 1479 1478 1477 1476 1475 1474 1473 1471 1470 1468 1467 1465 1463 1460 1458 1456 1453 1450 1447 1445 1442 1439 1436 1433 1430 1426 1422 1418 1415 1412 1409 1406 1404 1402 1402 1402 1401 1402 1405 1407 1409 1411 1414 1417 1422 1426 1430 1434 1438 1442 1446 1447 1448 1451 1456 1461 1464
1480 1480 1481 1481 1481 1482 1482 1482 1482 1481 1481 1481 1481 1480 1480 1480 1479 1478 1477 1476 1475 1474 1473 1471 1470 1469 1468 1466 1464 1462 1461 1459 1457 1454 1451 1449 1447 1445 1443 1440 1437 1434 1430 1427 1424 1421 1418 1415 1412 1409 1406 1406 1407 1407 1409 1413 1415 1417 1419 1421 1423 1426 1429 1432 1435 1438 1442 1445 1447 1450 1455 1459 1463 1465
1479 1479 1480 1480 1480 1480 1480 1480 1480 1479 1479 1479 1479 1478 1478 1478 1477 1476 1476 1475 1474 1473 1472 1470 1469 1468 1467 1465 1464 1462 1461 1460 1458 1455 1453 1451 1450 1448 1446 1444 1441 1438 1435 1433 1430 1428 1424 1421 1418 1415 1413 1413 1414 1415 1417 1420 1423 1425 1426 1428 1429 1431 1433 1435 1437 1440 1443 1446 1449 1453 1458 1461 1464 1467